This is the latest recevied weather packets stored in our database for station/object OE6JUE. If no packets are shown the sender has not sent any weather packets the latest 10 day(s).
| Time | Temp. | Humidity | Pressure | Rain* | Wind** | Luminosity | Snow |
|---|---|---|---|---|---|---|---|
| 1777819276 | 26.67° C | 26% | 1017.7 hPa | 0 mm | - | - | - |
| 1777818975 | 26.67° C | 26% | 1017.7 hPa | 0 mm | - | - | - |
| 1777818676 | 26.67° C | 26% | 1017.5 hPa | 0 mm | - | - | - |
| 1777818376 | 26.67° C | 26% | 1017.8 hPa | 0 mm | - | - | - |
| 1777818076 | 27.22° C | 26% | 1017.8 hPa | 0 mm | - | - | - |
| 1777817776 | 26.67° C | 26% | 1017.9 hPa | 0 mm | - | - | - |
| 1777817475 | 26.67° C | 27% | 1018 hPa | 0 mm | - | - | - |
| 1777817175 | 26.67° C | 27% | 1018.1 hPa | 0 mm | - | - | - |
| 1777816875 | 26.11° C | 28% | 1018.1 hPa | - | - | - | - |
| 1777816576 | 26.11° C | 26% | 1018 hPa | 0 mm | - | - | - |
| 1777816275 | 26.67° C | 26% | 1018.1 hPa | 0 mm | - | - | - |
| 1777815975 | 26.67° C | 27% | 1018.2 hPa | 0 mm | - | - | - |
| 1777815675 | 26.11° C | 28% | 1018.4 hPa | 0 mm | - | - | - |
| 1777815375 | 26.11° C | 26% | 1018.2 hPa | 0 mm | - | - | - |
| 1777815075 | 26.11° C | 27% | 1018.2 hPa | 0 mm | - | - | - |
| 1777814775 | 26.67° C | 30% | 1018.2 hPa | 0 mm | - | - | - |
| 1777814476 | 26.11° C | 30% | 1018.5 hPa | 0 mm | - | - | - |
| 1777814175 | 26.11° C | 30% | 1018.5 hPa | 0 mm | - | - | - |
| 1777813875 | 26.11° C | 29% | 1018.5 hPa | 0 mm | - | - | - |
| 1777813575 | 26.11° C | 28% | 1018.6 hPa | 0 mm | - | - | - |
| 1777813275 | 26.11° C | 28% | 1018.6 hPa | - | - | - | - |
| 1777812976 | 26.11° C | 28% | 1018.6 hPa | 0 mm | - | - | - |
| 1777812675 | 25.56° C | 28% | 1018.6 hPa | 0 mm | - | - | - |
| 1777812376 | 26.11° C | 28% | 1018.8 hPa | 0 mm | - | - | - |
| 1777812075 | 25.56° C | 28% | 1018.8 hPa | 0 mm | - | - | - |
* Rain latest hour (hover to see other rain measurements)
** Current wind speed in m/s (hover to see current wind gust speed)